Location: *
(44.1392°N, 4.8079°E)
Time: 09:30:45
(UTC+00:00)

CZ-4C R/B - Visible Passes

Search period start: 28 October 2021 00:00
Search period end: 07 November 2021 00:00
Orbit: 463 x 632 km, 98.0° (Epoch: 27 October)

Date Brightness Start Highest point End Pass type
(mag) Time Alt. Az. Time Alt. Az. Time Alt. Az.
28 Oct 6.6 17:36:12 10° NW 17:37:53 12° WNW 17:39:34 10° W visible
29 Oct 6.5 17:30:49 10° NNW 17:32:58 14° WNW 17:35:08 10° W visible
30 Oct 6.4 17:25:33 10° NNW 17:28:04 15° WNW 17:30:35 10° W visible
31 Oct 6.4 17:20:19 10° NNW 17:23:08 17° WNW 17:25:57 10° WSW visible
01 Nov 6.3 17:15:09 10° NNW 17:18:13 19° WNW 17:21:17 10° WSW visible
02 Nov 6.2 17:10:00 10° NNW 17:13:17 21° WNW 17:16:34 10° WSW visible
03 Nov 6.0 17:04:52 10° NNW 17:08:21 23° WNW 17:11:49 10° WSW visible
04 Nov 5.8 16:59:45 10° N 17:03:24 26° WNW 17:07:02 10° WSW visible
05 Nov 5.6 16:54:39 10° N 16:58:27 29° WNW 17:02:13 10° SW visible
06 Nov 5.4 16:49:34 10° N 16:53:30 32° WNW 16:57:22 10° SW visible
